Station Historical Data
Daily Summary for November 12, 2017 Units:  Metric    English   Both
« Previous Day
Next Day »
Daily Weekly Monthly Yearly Custom
  High: Low: Average:
Temperature: 5.8 °C -2.4 °C 2 °C
Dew Point: -0.4 °C -8.5 °C -4.7 °C
Humidity: 81% 53% 61%
Wind Speed: 6.4km/h 0km/h 0.8km/h
Wind Gust: 11.3km/h - -
Wind- - SE
Pressure: 1029.7 hPa 1027.7 hPa -
Precipitation: 0 mm    
Historical Graphs
 
 
Tabular Data for November 12, 2017
Time Temperature Dew Point Pressure Wind Wind Speed Wind Gust Humidity Rainfall Rate (Hourly)
00:04 -1.9 °C -7.8 °C 1029 hPa Calm     64% 0 mm
00:09 -1.9 °C -8 °C 1029 hPa Calm     63% 0 mm
00:14 -1.9 °C -8.1 °C 1029 hPa Calm     63% 0 mm
00:19 -2 °C -8.3 °C 1029 hPa Calm     62% 0 mm
00:24 -2 °C -8.5 °C 1029 hPa Calm   8 km/h 61% 0 mm
00:29 -1.9 °C -8.5 °C 1028.7 hPa Calm   4.8 km/h 61% 0 mm
00:34 -1.9 °C -8.5 °C 1028.7 hPa Calm   1.6 km/h 61% 0 mm
00:39 -2.2 °C -8.5 °C 1028.7 hPa Calm   1.6 km/h 62% 0 mm
00:44 -2.4 °C -8.5 °C 1028.7 hPa Calm   1.6 km/h 63% 0 mm
00:49 -2.4 °C -8.3 °C 1028.7 hPa Calm   1.6 km/h 64% 0 mm
00:54 -2.3 °C -8.2 °C 1028.7 hPa Calm     64% 0 mm
00:59 -2.2 °C -8.1 °C 1028.7 hPa Calm     64% 0 mm
01:05 -2.1 °C -8 °C 1028.7 hPa Calm     64% 0 mm
01:10 -2 °C -7.9 °C 1028.7 hPa Calm     64% 0 mm
01:15 -1.9 °C -7.7 °C 1028.7 hPa Calm   1.6 km/h 65% 0 mm
01:20 -1.9 °C -7.7 °C 1028.7 hPa Calm   3.2 km/h 65% 0 mm
01:25 -1.9 °C -7.6 °C 1028.7 hPa Calm   1.6 km/h 65% 0 mm
01:30 -1.8 °C -7.7 °C 1028.7 hPa Calm   3.2 km/h 64% 0 mm
01:35 -1.6 °C -7.7 °C 1028.7 hPa Calm   3.2 km/h 63% 0 mm
01:40 -1.4 °C -7.9 °C 1028.7 hPa Calm   3.2 km/h 61% 0 mm
01:45 -1.2 °C -8 °C 1028.7 hPa Calm   4.8 km/h 60% 0 mm
01:50 -1.2 °C -7.9 °C 1028.7 hPa SSW 1.6 km/h 4.8 km/h 60% 0 mm
01:55 -1.2 °C -7.7 °C 1028.7 hPa Calm   1.6 km/h 61% 0 mm
02:00 -1.2 °C -7.6 °C 1028.7 hPa Calm   3.2 km/h 62% 0 mm
02:05 -1.2 °C -7.6 °C 1028.7 hPa Calm   4.8 km/h 62% 0 mm
02:10 -1.3 °C -7.6 °C 1028.7 hPa Calm     62% 0 mm
02:15 -1.3 °C -7.6 °C 1028.7 hPa South 3.2 km/h 4.8 km/h 62% 0 mm
02:20 -1.3 °C -7.6 °C 1028.7 hPa Calm   3.2 km/h 62% 0 mm
02:25 -1.2 °C -7.6 °C 1029 hPa Calm   3.2 km/h 62% 0 mm
02:30 -1.2 °C -7.6 °C 1028.7 hPa Calm     62% 0 mm
02:35 -1.3 °C -7.6 °C 1028.7 hPa Calm     62% 0 mm
02:40 -1.3 °C -7.6 °C 1028.7 hPa Calm     62% 0 mm
02:45 -1.3 °C -7.6 °C 1028.7 hPa Calm     62% 0 mm
02:50 -1.3 °C -7.4 °C 1029 hPa Calm     63% 0 mm
02:55 -1.2 °C -7.4 °C 1028.7 hPa Calm     63% 0 mm
03:00 -1.3 °C -7.4 °C 1028.7 hPa Calm     63% 0 mm
03:05 -1.3 °C -7.4 °C 1028.7 hPa Calm     63% 0 mm
03:15 -1.3 °C -7.4 °C 1028.7 hPa Calm     63% 0 mm
03:20 -1.2 °C -7.6 °C 1028.7 hPa Calm     62% 0 mm
03:25 -1.3 °C -7.6 °C 1028.7 hPa Calm     62% 0 mm
03:30 -1.3 °C -7.6 °C 1028.7 hPa Calm     62% 0 mm
03:35 -1.2 °C -7.8 °C 1028.7 hPa Calm     61% 0 mm
03:40 -1.2 °C -7.8 °C 1028.7 hPa Calm     61% 0 mm
03:45 -1.1 °C -7.7 °C 1028.7 hPa Calm     61% 0 mm
03:50 -1.1 °C -7.9 °C 1028.7 hPa Calm     60% 0 mm
03:55 -1.1 °C -7.9 °C 1028.7 hPa Calm     60% 0 mm
04:00 -1.2 °C -7.9 °C 1028.7 hPa Calm     60% 0 mm
04:05 -1.2 °C -7.9 °C 1029 hPa Calm     60% 0 mm
04:10 -1.3 °C -8.1 °C 1028.7 hPa Calm     60% 0 mm
04:14 -1.4 °C -7.9 °C 1028.7 hPa Calm     61% 0 mm
04:19 -1.5 °C -8.1 °C 1029 hPa Calm     61% 0 mm
04:25 -1.7 °C -8 °C 1029 hPa Calm     62% 0 mm
04:30 -1.8 °C -8.1 °C 1029 hPa Calm     62% 0 mm
04:35 -1.8 °C -7.9 °C 1029 hPa Calm     63% 0 mm
04:40 -1.9 °C -7.8 °C 1029 hPa Calm     64% 0 mm
04:45 -2.1 °C -7.8 °C 1029 hPa Calm     65% 0 mm
04:50 -2.1 °C -7.8 °C 1029 hPa Calm     65% 0 mm
04:55 -1.9 °C -7.7 °C 1029 hPa Calm     65% 0 mm
05:00 -1.8 °C -7.7 °C 1029 hPa Calm     64% 0 mm
05:05 -1.7 °C -7.4 °C 1029 hPa Calm     65% 0 mm
05:10 -1.6 °C -7.5 °C 1029 hPa Calm     64% 0 mm
05:15 -1.4 °C -7.4 °C 1029 hPa Calm     64% 0 mm
05:19 -1.3 °C -7.5 °C 1029 hPa Calm     63% 0 mm
05:24 -1.3 °C -7.4 °C 1029 hPa Calm     63% 0 mm
05:30 -1.2 °C -7.3 °C 1029 hPa Calm     63% 0 mm
05:35 -1.1 °C -7.3 °C 1029 hPa Calm     63% 0 mm
05:40 -1.1 °C -7.4 °C 1029 hPa Calm     62% 0 mm
05:45 -0.9 °C -7.3 °C 1029.3 hPa Calm     62% 0 mm
05:50 -0.8 °C -7.4 °C 1029.3 hPa Calm     61% 0 mm
05:55 -0.7 °C -7.6 °C 1029.3 hPa Calm     60% 0 mm
06:00 -0.7 °C -7.5 °C 1029.3 hPa Calm     60% 0 mm
06:05 -0.6 °C -7.6 °C 1029.3 hPa Calm     59% 0 mm
06:10 -0.6 °C -7.6 °C 1029.3 hPa Calm     59% 0 mm
06:15 -0.5 °C -7.6 °C 1029.3 hPa Calm     59% 0 mm
06:19 -0.6 °C -7.6 °C 1029.3 hPa Calm     59% 0 mm
06:24 -0.5 °C -7.6 °C 1029.3 hPa Calm     59% 0 mm
06:29 -0.5 °C -7.8 °C 1029.3 hPa Calm     58% 0 mm
06:34 -0.5 °C -7.8 °C 1029.3 hPa Calm   4.8 km/h 58% 0 mm
06:40 -0.4 °C -7.7 °C 1029.3 hPa SSE 3.2 km/h 6.4 km/h 58% 0 mm
06:45 -0.4 °C -7.7 °C 1029.3 hPa SSE 3.2 km/h 6.4 km/h 58% 0 mm
06:49 -0.4 °C -7.7 °C 1029.3 hPa SSE 1.6 km/h 6.4 km/h 58% 0 mm
06:55 -0.3 °C -7.6 °C 1029.3 hPa SSE 1.6 km/h 4.8 km/h 58% 0 mm
07:00 -0.3 °C -7.3 °C 1029.3 hPa Calm   4.8 km/h 59% 0 mm
07:05 -0.2 °C -7.3 °C 1029.3 hPa Calm   4.8 km/h 59% 0 mm
07:10 -0.2 °C -7.3 °C 1029.3 hPa SSE 3.2 km/h 3.2 km/h 59% 0 mm
07:15 -0.2 °C -7.4 °C 1029.3 hPa SSE 1.6 km/h 4.8 km/h 58% 0 mm
07:20 -0.2 °C -7.4 °C 1029.3 hPa SSE 1.6 km/h 4.8 km/h 58% 0 mm
07:24 -0.2 °C -7.4 °C 1029.3 hPa SSE 1.6 km/h 4.8 km/h 58% 0 mm
07:30 -0.1 °C -7.3 °C 1029.3 hPa SSE 1.6 km/h 4.8 km/h 58% 0 mm
07:34 0 °C -7.3 °C 1029.3 hPa Calm     58% 0 mm
07:39 0.1 °C -7.2 °C 1029.3 hPa Calm     58% 0 mm
07:44 0.1 °C -7.2 °C 1029.3 hPa Calm     58% 0 mm
07:49 0.2 °C -7.3 °C 1029.3 hPa SSE 1.6 km/h 6.4 km/h 57% 0 mm
07:54 0.2 °C -7.1 °C 1029.3 hPa SSE 1.6 km/h 3.2 km/h 58% 0 mm
08:00 0.2 °C -7.1 °C 1029.3 hPa Calm   4.8 km/h 58% 0 mm
08:04 0.3 °C -7.1 °C 1029.3 hPa SSE 1.6 km/h 4.8 km/h 58% 0 mm
08:09 0.3 °C -7.1 °C 1029.3 hPa South 4.8 km/h 6.4 km/h 58% 0 mm
08:15 0.3 °C -7 °C 1029.3 hPa Calm   6.4 km/h 58% 0 mm
08:20 0.4 °C -7.2 °C 1029.7 hPa SSE 1.6 km/h 6.4 km/h 57% 0 mm
08:24 0.4 °C -6.9 °C 1029.7 hPa SSE 1.6 km/h 6.4 km/h 58% 0 mm
08:29 0.5 °C -6.8 °C 1029.7 hPa Calm   4.8 km/h 58% 0 mm
08:35 0.6 °C -6.8 °C 1029.7 hPa Calm   6.4 km/h 58% 0 mm
08:40 0.7 °C -6.7 °C 1029.7 hPa SSE 1.6 km/h 6.4 km/h 58% 0 mm
08:44 0.7 °C -6.8 °C 1029.7 hPa South 3.2 km/h 8 km/h 57% 0 mm
08:49 0.7 °C -6.8 °C 1029.7 hPa South 4.8 km/h 8 km/h 57% 0 mm
08:54 0.8 °C -6.7 °C 1029.3 hPa South 1.6 km/h 8 km/h 57% 0 mm
08:59 0.9 °C -6.9 °C 1029.3 hPa SSE 1.6 km/h 6.4 km/h 56% 0 mm
09:05 0.9 °C -6.8 °C 1029.3 hPa SSE 1.6 km/h 6.4 km/h 56% 0 mm
09:09 1 °C -6.8 °C 1029.3 hPa SSE 3.2 km/h 4.8 km/h 56% 0 mm
09:14 1.1 °C -6.5 °C 1029.3 hPa Calm   6.4 km/h 57% 0 mm
09:20 1.2 °C -6.4 °C 1029.3 hPa Calm   4.8 km/h 57% 0 mm
09:25 1.2 °C -6.4 °C 1029.3 hPa SSE 3.2 km/h 4.8 km/h 57% 0 mm
09:29 1.3 °C -6.3 °C 1029.3 hPa SSE 1.6 km/h 4.8 km/h 57% 0 mm
09:34 1.3 °C -6.3 °C 1029.3 hPa SSE 1.6 km/h 6.4 km/h 57% 0 mm
09:40 1.4 °C -6.2 °C 1029.3 hPa SSE 1.6 km/h 6.4 km/h 57% 0 mm
09:44 1.6 °C -6.3 °C 1029.3 hPa SSE 4.8 km/h 6.4 km/h 56% 0 mm
09:50 1.7 °C -6.1 °C 1029.3 hPa ESE 3.2 km/h 6.4 km/h 56% 0 mm
09:54 1.8 °C -6.3 °C 1029.3 hPa SSW 4.8 km/h 8 km/h 55% 0 mm
09:59 1.9 °C -5.9 °C 1029.3 hPa South 3.2 km/h 8 km/h 56% 0 mm
10:04 2.2 °C -5.7 °C 1029.3 hPa SSW 3.2 km/h 8 km/h 56% 0 mm
10:09 2.3 °C -5.8 °C 1029.3 hPa South 1.6 km/h 6.4 km/h 55% 0 mm
10:14 2.3 °C -5.8 °C 1029.3 hPa SSE 1.6 km/h 6.4 km/h 55% 0 mm
10:20 2.3 °C -5.8 °C 1029.3 hPa SSE 3.2 km/h 8 km/h 55% 0 mm
10:25 2.3 °C -5.8 °C 1029.3 hPa SSE 1.6 km/h 6.4 km/h 55% 0 mm
10:29 2.4 °C -5.7 °C 1029.3 hPa SSE 1.6 km/h 6.4 km/h 55% 0 mm
10:34 2.6 °C -5.6 °C 1029.3 hPa SSE 1.6 km/h 4.8 km/h 55% 0 mm
10:39 2.6 °C -5.6 °C 1029.3 hPa SSE 1.6 km/h 4.8 km/h 55% 0 mm
10:45 2.6 °C -5.6 °C 1029.3 hPa SSE 1.6 km/h 4.8 km/h 55% 0 mm
10:50 2.8 °C -5.2 °C 1029.3 hPa SSE 1.6 km/h 4.8 km/h 56% 0 mm
10:54 3.1 °C -4.9 °C 1029.3 hPa Calm   4.8 km/h 56% 0 mm
10:59 3.3 °C -5.2 °C 1029.3 hPa South 1.6 km/h 4.8 km/h 54% 0 mm
11:04 3.5 °C -4.9 °C 1029.3 hPa South 4.8 km/h 4.8 km/h 54% 0 mm
11:09 3.7 °C -4.8 °C 1029.3 hPa Calm   8 km/h 54% 0 mm
11:14 3.8 °C -4.7 °C 1029.3 hPa Calm     54% 0 mm
11:19 3.8 °C -4.7 °C 1029.3 hPa Calm     54% 0 mm
11:25 3.7 °C -4.7 °C 1029 hPa Calm   4.8 km/h 54% 0 mm
11:30 3.7 °C -4.8 °C 1029 hPa South 1.6 km/h 4.8 km/h 54% 0 mm
11:34 3.7 °C -4 °C 1029 hPa Calm   4.8 km/h 57% 0 mm
11:39 3.8 °C -4.7 °C 1029 hPa South 1.6 km/h 3.2 km/h 54% 0 mm
11:44 3.8 °C -4.6 °C 1029 hPa South 1.6 km/h 4.8 km/h 54% 0 mm
11:49 3.9 °C -4.3 °C 1029 hPa SW 4.8 km/h 6.4 km/h 55% 0 mm
11:54 3.9 °C -4.6 °C 1029 hPa SW 1.6 km/h 4.8 km/h 54% 0 mm
11:59 3.9 °C -4.6 °C 1029 hPa SW 1.6 km/h 4.8 km/h 54% 0 mm
12:04 4 °C -4.2 °C 1029 hPa Calm   4.8 km/h 55% 0 mm
12:09 4 °C -4.2 °C 1029 hPa SW 1.6 km/h 4.8 km/h 55% 0 mm
12:14 4 °C -4.2 °C 1029 hPa Calm   3.2 km/h 55% 0 mm
12:20 4.1 °C -4.7 °C 1029 hPa Calm   3.2 km/h 53% 0 mm
12:25 4.1 °C -4.4 °C 1028.7 hPa Calm   1.6 km/h 54% 0 mm
12:29 4.2 °C -4.1 °C 1028.7 hPa Calm     55% 0 mm
12:35 4.2 °C -4.3 °C 1028.7 hPa Calm     54% 0 mm
12:39 4.2 °C -4.3 °C 1028.7 hPa Calm     54% 0 mm
12:44 4.2 °C -4.1 °C 1028.7 hPa Calm   3.2 km/h 55% 0 mm
12:49 4.3 °C -3.7 °C 1028.7 hPa Calm   3.2 km/h 56% 0 mm
12:54 4.4 °C -3.9 °C 1028.7 hPa Calm     55% 0 mm
12:59 4.6 °C -3.7 °C 1028.7 hPa Calm     55% 0 mm
13:04 4.7 °C -3.4 °C 1028.7 hPa Calm   4.8 km/h 56% 0 mm
13:09 4.8 °C -3.7 °C 1028.7 hPa Calm   4.8 km/h 54% 0 mm
13:14 4.9 °C -3.4 °C 1028.7 hPa Calm   3.2 km/h 55% 0 mm
13:19 4.9 °C -3.4 °C 1028.3 hPa Calm   3.2 km/h 55% 0 mm
13:24 4.8 °C -3.2 °C 1028.3 hPa Calm   4.8 km/h 56% 0 mm
13:30 4.8 °C -3.4 °C 1028.3 hPa Calm   4.8 km/h 55% 0 mm
13:35 4.9 °C -3.3 °C 1028 hPa South 3.2 km/h 4.8 km/h 55% 0 mm
13:39 4.9 °C -3.1 °C 1028.3 hPa SSE 1.6 km/h 4.8 km/h 56% 0 mm
13:40 4.9 °C -3.1 °C 1028.3 hPa Calm   4.8 km/h 56% 0 mm
13:44 5.1 °C -3.5 °C 1028 hPa SE 1.6 km/h 4.8 km/h 54% 0 mm
13:49 5.2 °C -2.8 °C 1028 hPa Calm   3.2 km/h 56% 0 mm
13:54 5.3 °C -3.1 °C 1028 hPa ESE 1.6 km/h 4.8 km/h 55% 0 mm
13:59 5.2 °C -3.4 °C 1028 hPa ESE 3.2 km/h 3.2 km/h 54% 0 mm
14:04 5.2 °C -3.6 °C 1028 hPa ESE 1.6 km/h 6.4 km/h 53% 0 mm
14:09 5.4 °C -2.7 °C 1028 hPa Calm   4.8 km/h 56% 0 mm
14:14 5.5 °C -2.8 °C 1028 hPa Calm   4.8 km/h 55% 0 mm
14:19 5.5 °C -2.6 °C 1028 hPa ENE 3.2 km/h 6.4 km/h 56% 0 mm
14:24 5.6 °C -2.7 °C 1027.7 hPa East 1.6 km/h 8 km/h 55% 0 mm
14:29 5.6 °C -2.6 °C 1027.7 hPa SE 1.6 km/h 4.8 km/h 56% 0 mm
14:34 5.6 °C -2.3 °C 1027.7 hPa East 3.2 km/h 4.8 km/h 57% 0 mm
14:39 5.6 °C -2.5 °C 1027.7 hPa East 1.6 km/h 6.4 km/h 56% 0 mm
14:44 5.7 °C -2.4 °C 1027.7 hPa ESE 1.6 km/h 6.4 km/h 56% 0 mm
14:49 5.7 °C -2.4 °C 1027.7 hPa SE 1.6 km/h 4.8 km/h 56% 0 mm
14:55 5.7 °C -2.4 °C 1027.7 hPa SE 1.6 km/h 4.8 km/h 56% 0 mm
15:00 5.7 °C -2.7 °C 1027.7 hPa SE 1.6 km/h 8 km/h 55% 0 mm
15:04 5.7 °C -2.7 °C 1027.7 hPa ESE 3.2 km/h 8 km/h 55% 0 mm
15:09 5.6 °C -2.5 °C 1027.7 hPa Calm   4.8 km/h 56% 0 mm
15:14 5.7 °C -2.4 °C 1027.7 hPa Calm   3.2 km/h 56% 0 mm
15:19 5.8 °C -2.6 °C 1027.7 hPa ESE 3.2 km/h 8 km/h 55% 0 mm
15:24 5.7 °C -2.7 °C 1027.7 hPa SE 1.6 km/h 6.4 km/h 55% 0 mm
15:29 5.6 °C -2.5 °C 1027.7 hPa SSE 3.2 km/h 11.3 km/h 56% 0 mm
15:34 5.5 °C -2.6 °C 1027.7 hPa SE 3.2 km/h 11.3 km/h 56% 0 mm
15:39 5.4 °C -2.7 °C 1027.7 hPa ESE 1.6 km/h 6.4 km/h 56% 0 mm
15:44 5.4 °C -2.9 °C 1027.7 hPa ESE 1.6 km/h 8 km/h 55% 0 mm
15:49 5.3 °C -2.8 °C 1027.7 hPa ESE 1.6 km/h 8 km/h 56% 0 mm
15:55 5.3 °C -2.8 °C 1027.7 hPa Calm   4.8 km/h 56% 0 mm
15:59 5.3 °C -2.8 °C 1027.7 hPa ESE 3.2 km/h 4.8 km/h 56% 0 mm
16:04 5.2 °C -3.1 °C 1027.7 hPa ESE 1.6 km/h 8 km/h 55% 0 mm
16:09 5.3 °C -3.1 °C 1027.7 hPa NE 6.4 km/h 9.7 km/h 55% 0 mm
16:14 5.2 °C -3.1 °C 1027.7 hPa East 3.2 km/h 8 km/h 55% 0 mm
16:19 5.2 °C -3.4 °C 1027.7 hPa East 1.6 km/h 8 km/h 54% 0 mm
16:24 5.1 °C -3.4 °C 1027.7 hPa Calm   6.4 km/h 54% 0 mm
16:29 5.1 °C -3.4 °C 1027.7 hPa ENE 1.6 km/h 9.7 km/h 54% 0 mm
16:34 5.1 °C -3.2 °C 1027.7 hPa East 1.6 km/h 9.7 km/h 55% 0 mm
16:44 5 °C -3.3 °C 1027.7 hPa ENE 1.6 km/h 6.4 km/h 55% 0 mm
16:49 5 °C -3.3 °C 1027.7 hPa ENE 3.2 km/h 9.7 km/h 55% 0 mm
16:54 5 °C -3.3 °C 1027.7 hPa East 1.6 km/h 9.7 km/h 55% 0 mm
16:59 4.9 °C -3.1 °C 1027.7 hPa East 3.2 km/h 4.8 km/h 56% 0 mm
17:04 4.9 °C -2.9 °C 1028 hPa East 1.6 km/h 8 km/h 57% 0 mm
17:09 4.9 °C -2.9 °C 1028 hPa ENE 1.6 km/h 8 km/h 57% 0 mm
17:14 4.9 °C -2.9 °C 1028 hPa ENE 3.2 km/h 6.4 km/h 57% 0 mm
17:19 4.8 °C -2.7 °C 1028 hPa Calm   8 km/h 58% 0 mm
17:24 4.8 °C -2.7 °C 1028 hPa ENE 3.2 km/h 9.7 km/h 58% 0 mm
17:29 4.8 °C -2.8 °C 1028 hPa East 4.8 km/h 4.8 km/h 58% 0 mm
17:34 4.8 °C -2.6 °C 1028 hPa ENE 1.6 km/h 11.3 km/h 59% 0 mm
17:39 4.8 °C -2.6 °C 1028 hPa ENE 3.2 km/h 11.3 km/h 59% 0 mm
17:44 4.8 °C -2.6 °C 1028 hPa East 4.8 km/h 8 km/h 59% 0 mm
17:49 4.7 °C -2.6 °C 1028 hPa East 3.2 km/h 4.8 km/h 59% 0 mm
17:54 4.7 °C -2.9 °C 1028 hPa ENE 3.2 km/h 8 km/h 58% 0 mm
18:00 4.7 °C -2.7 °C 1028 hPa ENE 1.6 km/h 6.4 km/h 59% 0 mm
18:04 4.7 °C -2.7 °C 1028 hPa Calm   4.8 km/h 59% 0 mm
18:09 4.6 °C -2.9 °C 1028 hPa East 1.6 km/h 4.8 km/h 58% 0 mm
18:14 4.6 °C -3 °C 1028 hPa East 3.2 km/h 9.7 km/h 58% 0 mm
18:19 4.6 °C -2.8 °C 1028.3 hPa East 1.6 km/h 3.2 km/h 59% 0 mm
18:24 4.5 °C -2.8 °C 1028.3 hPa Calm   4.8 km/h 59% 0 mm
18:29 4.4 °C -2.9 °C 1028.3 hPa East 1.6 km/h 4.8 km/h 59% 0 mm
18:34 4.4 °C -2.7 °C 1028.3 hPa East 1.6 km/h 4.8 km/h 60% 0 mm
18:39 4.3 °C -2.6 °C 1028.3 hPa East 1.6 km/h 4.8 km/h 61% 0 mm
18:44 4.2 °C -2.4 °C 1028.3 hPa Calm   3.2 km/h 62% 0 mm
18:49 4.2 °C -2.3 °C 1028.7 hPa Calm   4.8 km/h 63% 0 mm
18:54 4.1 °C -2.2 °C 1028.3 hPa East 1.6 km/h 3.2 km/h 64% 0 mm
18:59 4 °C -2.4 °C 1028.3 hPa Calm   4.8 km/h 63% 0 mm
19:04 3.9 °C -2.3 °C 1028.7 hPa ENE 1.6 km/h 4.8 km/h 64% 0 mm
19:09 3.9 °C -2.4 °C 1028.7 hPa ENE 1.6 km/h 4.8 km/h 63% 0 mm
19:14 3.9 °C -2.3 °C 1028.7 hPa ENE 1.6 km/h 4.8 km/h 64% 0 mm
19:19 3.9 °C -2.5 °C 1028.7 hPa Calm   4.8 km/h 63% 0 mm
19:24 3.9 °C -2.3 °C 1028.7 hPa Calm   3.2 km/h 64% 0 mm
19:29 3.9 °C -2.4 °C 1028.3 hPa Calm     63% 0 mm
19:34 3.9 °C -2.5 °C 1028.3 hPa Calm   1.6 km/h 63% 0 mm
19:39 3.9 °C -2.5 °C 1028.3 hPa Calm   1.6 km/h 63% 0 mm
19:44 3.9 °C -2.5 °C 1028.3 hPa Calm   3.2 km/h 63% 0 mm
19:49 3.9 °C -2.3 °C 1028.3 hPa Calm   3.2 km/h 64% 0 mm
19:54 3.8 °C -2.3 °C 1028.3 hPa Calm   4.8 km/h 64% 0 mm
19:59 3.7 °C -2.3 °C 1028.3 hPa Calm     65% 0 mm
20:04 3.6 °C -2.2 °C 1028.3 hPa Calm     66% 0 mm
20:09 3.6 °C -2.2 °C 1028 hPa Calm     66% 0 mm
20:14 3.4 °C -2.1 °C 1028 hPa Calm     67% 0 mm
20:19 3.4 °C -2.1 °C 1028 hPa Calm     67% 0 mm
20:24 3.4 °C -2.2 °C 1028 hPa Calm     67% 0 mm
20:29 3.3 °C -1.8 °C 1028 hPa Calm     69% 0 mm
20:34 3.3 °C -1.7 °C 1028 hPa Calm     70% 0 mm
20:39 3.2 °C -1.7 °C 1028 hPa Calm     70% 0 mm
20:44 3.3 °C -1.5 °C 1028 hPa Calm     71% 0 mm
20:49 3.2 °C -1.7 °C 1028 hPa Calm     70% 0 mm
20:54 3.3 °C -1.5 °C 1028 hPa Calm     71% 0 mm
21:00 3.3 °C -1.5 °C 1028 hPa Calm     71% 0 mm
21:04 3.2 °C -1.6 °C 1028.3 hPa Calm     71% 0 mm
21:09 3.1 °C -1.7 °C 1028 hPa Calm     71% 0 mm
21:14 3 °C -1.6 °C 1028 hPa Calm     72% 0 mm
21:19 2.9 °C -1.7 °C 1028 hPa Calm     72% 0 mm
21:24 2.7 °C -1.6 °C 1028 hPa Calm     73% 0 mm
21:29 2.6 °C -1.4 °C 1028 hPa Calm     75% 0 mm
21:34 2.5 °C -1.3 °C 1028.3 hPa Calm     76% 0 mm
21:39 2.5 °C -1.1 °C 1028.3 hPa Calm     77% 0 mm
21:44 2.4 °C -1.2 °C 1028 hPa Calm     77% 0 mm
21:49 2.4 °C -1.1 °C 1028 hPa Calm     78% 0 mm
21:54 2.4 °C -1 °C 1028 hPa Calm     78% 0 mm
21:59 2.5 °C -0.9 °C 1028 hPa Calm     78% 0 mm
22:05 2.5 °C -0.9 °C 1028 hPa Calm     78% 0.25 mm
22:19 2.7 °C -0.4 °C 1028 hPa Calm     80% 0.25 mm
22:24 2.6 °C -0.7 °C 1028 hPa Calm     79% 0.25 mm
22:29 2.6 °C -0.7 °C 1027.7 hPa Calm     79% 0.25 mm
22:34 2.7 °C -0.6 °C 1027.7 hPa Calm   4.8 km/h 79% 0.25 mm
22:39 2.6 °C -0.5 °C 1027.7 hPa Calm   4.8 km/h 80% 0.25 mm
22:44 2.6 °C -0.5 °C 1027.7 hPa Calm   1.6 km/h 80% 0.25 mm
22:49 2.6 °C -0.6 °C 1027.7 hPa Calm     80% 0.25 mm
22:54 2.6 °C -0.6 °C 1027.7 hPa Calm     80% 0.25 mm
22:59 2.6 °C -0.6 °C 1027.7 hPa Calm     80% 0.25 mm
23:04 2.6 °C -0.6 °C 1027.7 hPa Calm     80% 0 mm
23:09 2.6 °C -0.6 °C 1027.7 hPa Calm     80% 0 mm
23:14 2.6 °C -0.5 °C 1027.7 hPa Calm     80% 0 mm
23:19 2.5 °C -0.6 °C 1027.7 hPa Calm     80% 0 mm
23:24 2.4 °C -0.7 °C 1027.7 hPa Calm     80% 0 mm
23:29 2.4 °C -0.7 °C 1027.7 hPa Calm     80% 0 mm
23:34 2.4 °C -0.7 °C 1027.7 hPa Calm     80% 0.25 mm
23:39 2.4 °C -0.6 °C 1027.7 hPa Calm     81% 0.25 mm
23:44 2.3 °C -0.6 °C 1027.7 hPa Calm     81% 0.25 mm
23:49 2.3 °C -0.8 °C 1027.7 hPa Calm     80% 0.25 mm
23:54 2.2 °C -0.7 °C 1027.7 hPa Calm     81% 0.25 mm
23:59 2.2 °C -0.8 °C 1027.7 hPa Calm     81% 0.25 mm
Buffalo, New York, USA
Compliments of Weather Underground - 2.5 mb